GEFSNE_500_meanwind_228.txt.gz
Wind_Speed
8 9 9 8 8 8 9 8 8 9 9 9 10 10 10 10 11 12 12 12 13 13 14 14 15 16 16 17 17 18 19 19 20 21 22 23 24 25
9 9 9 9 10 10 10 10 10 10 10 10 10 10 11 11 12 13 13 14 14 15 15 16 17 17 17 18 19 20 21 22 23 24 24 25 25 26
10 10 10 10 11 11 11 10 10 10 10 10 11 11 11 12 13 14 15 16 16 17 17 18 18 19 19 20 21 22 23 24 25 25 25 26 26 27
11 11 11 11 11 11 12 12 11 12 12 12 12 12 13 14 15 15 16 16 16 17 18 19 19 20 21 22 23 23 25 25 26 27 27 28 27 27
12 12 12 13 12 12 13 13 13 13 13 13 13 14 14 15 16 16 16 17 17 18 19 20 21 22 23 24 24 25 26 27 27 28 28 28 27 27
13 13 13 14 14 14 14 14 14 14 14 14 14 15 16 16 17 17 18 19 19 20 21 21 22 23 24 25 25 26 27 28 28 28 28 28 27 27
14 14 14 15 15 16 16 16 17 16 16 16 16 16 17 17 18 19 20 20 21 21 22 23 23 24 25 26 26 27 28 29 28 28 28 28 28 28
15 15 16 17 17 18 18 18 18 18 18 18 19 19 18 19 20 20 21 22 22 23 23 24 24 25 26 27 27 28 29 29 29 29 29 28 28 28
16 17 17 18 19 19 19 19 19 19 19 20 20 20 20 21 21 22 22 23 24 24 24 25 25 26 27 28 29 30 30 29 30 29 29 30 29 29
18 18 19 19 20 20 20 20 21 21 22 22 22 22 22 22 23 23 23 23 24 24 25 26 27 28 29 29 30 30 30 30 30 30 30 30 30 30
19 20 20 20 20 20 21 21 21 22 23 24 24 24 24 24 24 24 24 24 24 25 26 26 27 28 29 29 29 29 30 29 29 30 30 30 30 31
21 21 21 21 21 22 22 23 22 22 23 24 24 25 25 25 25 25 25 25 26 26 27 27 28 29 29 29 29 30 30 30 30 30 31 30 31 31
22 22 21 22 22 23 23 24 24 24 23 23 24 25 25 26 26 26 27 27 27 27 28 28 29 29 30 30 29 30 30 30 31 31 32 32 32 32
23 23 22 23 23 24 24 25 25 25 25 25 25 25 25 26 27 28 28 29 29 29 29 29 30 30 30 30 30 29 30 30 31 32 33 33 33 33
24 24 24 25 24 24 25 26 26 26 25 25 25 25 25 26 27 28 29 30 30 30 30 30 30 31 31 31 31 30 30 31 32 33 33 33 33 33
25 26 26 26 26 26 26 27 27 27 26 26 26 26 26 27 27 29 30 30 30 30 31 31 31 31 31 31 31 31 32 32 32 32 33 33 34 34
27 27 27 28 28 28 28 28 28 28 27 27 28 28 28 28 28 29 30 31 31 31 31 32 31 31 32 31 31 32 32 32 33 33 33 32 33 33
29 29 29 29 29 29 29 29 29 29 29 29 29 29 29 29 29 30 31 31 31 31 32 32 32 32 32 32 33 33 32 33 34 33 33 33 33 34
31 31 30 31 31 31 30 30 30 31 31 31 30 30 30 30 31 31 31 32 33 33 33 33 33 34 33 33 33 33 33 34 34 34 34 33 33 34
32 32 32 32 32 31 31 31 31 32 32 32 32 31 32 32 32 33 33 33 34 34 34 34 34 34 34 33 33 33 34 35 35 34 34 34 34 34
33 33 33 33 33 33 33 33 33 33 32 33 33 33 33 33 34 34 35 35 35 35 35 34 35 36 35 35 35 35 35 36 36 35 35 34 34 34
33 33 33 34 34 35 35 35 35 34 34 34 34 35 35 35 35 35 36 36 36 36 35 35 36 36 36 36 35 35 35 36 36 36 36 36 36 35
33 33 33 33 34 35 36 36 37 36 36 36 36 36 37 37 37 38 38 37 37 37 36 37 37 37 38 38 37 36 36 36 36 36 36 37 37 37

GEFSNE_500_meanwind_234.txt.gz
Wind_Speed
10 10 10 9 9 10 10 10 10 10 11 11 10 11 11 12 11 11 12 12 13 13 13 13 14 14 14 15 15 16 17 18 19 20 20 21 22 23
11 12 12 11 11 11 11 11 11 12 12 12 12 12 12 13 13 13 13 13 14 14 15 15 15 16 16 17 17 18 19 19 20 21 22 22 23 24
13 13 13 13 12 12 13 12 12 12 13 13 13 13 13 13 13 14 14 15 15 16 16 17 17 18 18 19 19 20 21 21 22 23 23 24 25 26
13 14 14 14 13 13 13 13 13 13 13 13 13 14 14 14 14 15 16 16 17 18 18 18 19 19 20 20 21 21 22 22 23 24 25 25 26 27
15 15 15 15 15 15 14 14 15 15 15 15 15 16 16 16 16 16 17 17 18 19 19 20 20 21 22 22 22 22 23 23 24 24 26 26 27 27
15 15 16 16 16 16 16 16 16 16 16 16 16 17 18 18 19 19 19 19 19 20 20 21 21 22 22 23 24 24 24 24 25 26 26 27 27 28
16 16 16 17 17 17 17 17 17 17 18 17 17 18 19 20 20 21 21 21 21 22 22 22 23 23 23 24 25 25 25 25 26 27 27 27 28 28
17 17 17 18 18 19 18 18 18 19 19 19 20 20 20 21 21 22 22 22 22 22 23 23 23 24 24 24 25 25 26 26 27 27 28 28 28 28
18 18 18 19 20 19 19 19 19 20 20 20 21 21 21 21 22 22 22 23 23 23 23 23 24 24 25 25 25 26 26 27 27 28 28 28 28 29
18 19 19 20 20 20 20 21 21 21 21 22 22 22 22 23 23 23 23 23 24 24 24 24 24 25 25 25 26 26 26 27 28 28 28 28 29 29
20 21 21 22 21 22 22 22 23 23 23 23 23 23 23 23 23 23 24 24 24 24 24 24 24 25 25 26 26 27 28 28 28 29 29 29 30 30
22 22 23 23 23 23 23 23 23 23 23 24 24 25 25 25 25 25 25 24 24 24 24 24 25 25 26 26 27 28 28 29 29 29 30 30 30 30
24 24 24 24 24 24 25 24 24 24 25 25 25 26 26 26 26 26 26 25 25 24 24 25 26 27 27 28 28 29 29 30 30 30 30 31 31 31
25 26 26 26 26 26 26 26 26 26 26 26 26 26 27 27 27 27 27 26 26 26 25 26 27 28 29 29 29 29 30 30 31 31 31 32 32 32
27 27 27 27 27 27 28 28 27 27 28 27 27 27 27 27 27 28 28 27 27 28 28 28 29 30 30 30 30 30 31 31 32 33 33 33 34 33
29 29 28 28 28 29 29 29 29 28 28 28 28 29 29 28 28 28 29 29 29 29 30 30 31 31 31 31 31 31 32 32 33 34 34 34 34 33
30 30 29 29 29 29 29 29 29 29 28 28 28 29 29 29 29 29 29 29 30 31 32 32 32 32 32 31 32 32 33 33 34 34 34 34 33 32
31 30 30 29 29 29 29 28 29 29 29 29 29 30 30 30 30 30 30 31 32 32 33 33 33 33 33 32 33 33 33 34 34 34 34 34 33 33
31 30 29 30 29 29 29 29 29 29 30 30 31 31 31 31 31 32 32 33 33 33 34 34 34 34 34 34 34 34 35 35 35 35 35 35 34 34
31 30 30 30 30 30 30 30 30 31 31 32 32 32 32 33 33 33 34 34 34 35 35 35 36 36 36 36 36 36 36 36 36 36 35 36 36 35
31 31 31 31 31 31 31 32 32 32 33 33 33 33 34 34 35 35 35 36 36 37 37 36 36 36 37 37 37 37 37 37 37 37 36 36 36 36
32 32 32 32 32 32 32 33 33 33 33 34 34 35 35 36 37 37 38 38 38 38 38 37 37 38 38 38 38 38 38 37 38 37 37 37 37 36
33 33 33 34 34 34 33 33 34 34 35 35 36 36 36 37 37 38 39 40 39 39 39 39 39 39 39 39 39 39 39 38 38 38 38 38 37 37

GEFSNE_500_meanwind_240.txt.gz
Wind_Speed
12 11 11 11 12 12 11 11 12 12 12 11 11 11 11 11 12 12 13 13 13 13 13 14 14 14 14 14 14 14 15 16 16 17 18 18 19 20
13 13 13 12 12 13 13 13 13 13 13 13 13 13 13 13 13 13 13 14 14 14 15 15 14 14 14 15 15 15 16 17 18 18 19 20 21 21
14 14 14 15 15 15 15 15 14 14 14 14 14 15 15 15 14 14 15 15 15 15 16 15 15 16 16 16 17 17 18 18 18 19 20 21 21 21
14 15 15 15 15 16 16 16 16 16 16 16 15 16 16 16 16 16 16 17 17 17 17 17 17 18 18 18 19 19 19 19 20 20 21 21 22 23
15 16 16 17 17 17 17 17 18 18 18 18 17 18 18 18 18 18 18 18 18 18 18 19 19 19 20 20 20 20 21 21 21 21 22 22 23 24
17 17 18 18 19 19 19 19 19 19 19 19 19 19 19 20 20 20 20 19 20 20 20 20 21 21 21 21 21 21 22 22 22 22 23 23 24 25
19 19 19 20 20 20 20 20 20 20 21 21 21 21 21 21 21 22 22 21 21 21 22 22 22 22 23 22 22 22 23 22 22 23 24 25 25 26
19 20 20 21 21 21 21 21 22 22 22 23 23 22 22 22 23 23 23 23 23 23 23 24 24 23 23 23 24 24 24 24 24 24 25 25 26 26
20 21 21 22 22 22 22 22 22 23 23 24 24 24 23 24 24 24 24 23 23 24 24 24 24 24 24 23 24 24 25 25 25 25 26 27 27 27
23 22 22 23 23 23 23 23 24 24 24 25 25 24 24 24 24 24 24 24 24 23 24 23 23 23 22 23 24 25 25 26 26 26 26 27 27 27
23 24 24 24 24 24 24 25 25 25 25 25 25 25 25 25 26 25 25 25 25 24 25 25 24 23 23 23 24 25 26 27 27 27 27 27 27 28
24 24 24 25 25 25 26 26 26 26 26 26 26 26 27 27 27 26 26 26 26 25 25 25 24 24 24 24 25 26 26 27 28 28 28 28 28 28
25 25 26 26 26 27 28 27 27 27 27 27 26 27 27 28 27 27 26 27 27 26 26 26 25 26 26 25 26 27 27 28 28 29 29 28 29 30
26 26 27 27 27 28 28 28 28 28 28 28 27 28 28 28 28 27 27 27 27 27 27 27 27 27 27 27 27 28 28 28 28 29 29 29 30 31
27 27 27 27 28 28 28 28 28 28 28 28 28 28 28 28 28 27 28 28 28 27 28 28 28 29 29 29 29 29 29 29 30 30 30 31 32 32
27 27 28 28 28 28 29 28 28 28 28 28 28 29 28 28 28 28 28 28 28 29 29 29 30 31 31 31 31 31 31 31 30 30 31 32 32 33
29 28 29 29 29 28 28 28 29 29 29 28 28 28 29 28 28 28 29 29 29 30 30 30 31 32 32 32 33 32 32 32 32 32 32 32 33 33
30 29 29 30 30 30 29 29 30 30 29 29 29 30 30 30 30 30 30 30 30 31 31 32 32 32 33 33 35 34 33 33 33 33 33 34 34 34
31 30 30 31 31 31 31 31 31 31 31 31 31 31 31 30 31 31 31 31 32 32 33 33 34 34 35 35 35 36 36 35 36 35 35 36 35 35
32 32 32 32 32 32 32 32 32 32 32 32 32 32 32 32 32 33 33 34 34 35 35 35 36 36 36 37 36 36 36 37 37 36 36 36 36 36
33 33 33 33 33 34 34 33 33 33 33 33 34 33 33 34 34 34 35 36 36 37 37 37 37 37 37 37 37 37 37 38 38 38 38 37 37 36
34 34 34 34 34 34 34 34 34 34 34 34 35 35 35 35 35 35 36 37 36 37 37 38 38 38 38 38 38 38 37 37 37 38 38 38 37 37
34 35 35 35 35 35 35 34 34 35 35 35 36 36 36 36 37 36 36 37 37 37 37 38 38 39 39 39 39 38 38 37 37 38 38 38 38 37

GEFSNE_500_meanwind_246.txt.gz
Wind_Speed
12 12 12 12 12 12 12 13 12 12 12 13 13 13 12 12 12 12 11 12 12 12 12 13 13 14 14 14 15 15 15 16 16 16 16 17 17 17
13 13 13 13 13 13 13 14 14 13 14 13 14 14 14 14 13 13 13 13 13 14 14 15 15 15 15 15 16 16 17 17 17 18 18 18 18 18
13 14 15 15 15 15 15 15 15 15 15 15 15 15 15 15 14 14 14 15 16 16 16 16 16 17 17 17 18 18 18 18 18 19 19 19 19 19
15 15 15 16 17 17 17 16 16 16 16 16 16 16 17 17 17 17 17 18 18 18 17 18 18 19 19 19 19 19 20 20 20 20 20 20 20 20
16 16 17 17 18 18 18 17 17 17 17 17 18 18 19 19 19 20 20 20 20 20 20 20 21 21 21 21 21 21 21 21 22 22 22 21 21 21
17 18 18 18 19 19 19 19 18 19 19 19 19 20 21 21 21 21 22 22 22 21 22 22 22 23 23 22 22 22 22 22 22 22 22 22 23 23
18 19 19 20 20 21 20 20 20 21 21 21 21 22 22 22 23 23 23 23 23 23 23 23 23 23 23 23 22 22 23 23 23 23 23 23 24 24
20 20 20 21 21 22 22 22 22 22 23 23 23 23 24 24 24 24 24 24 24 24 24 23 23 23 23 23 23 22 23 23 24 24 25 25 25 26
21 21 21 22 23 22 23 23 23 24 24 24 24 25 25 26 26 26 26 25 25 24 24 23 23 23 24 23 23 23 24 23 23 24 25 26 26 26
22 22 23 23 23 23 23 24 24 25 25 26 26 26 27 27 27 27 27 26 25 25 25 25 25 24 24 24 24 25 25 25 25 25 25 25 27 27
23 23 23 23 23 24 24 25 25 25 26 26 27 27 27 27 27 27 27 26 26 26 26 26 26 25 25 25 25 25 25 26 26 26 27 27 27 27
23 24 24 24 24 24 25 26 26 26 26 27 27 26 26 26 26 26 27 26 26 27 27 27 27 26 25 25 26 26 27 27 27 27 27 28 28 28
23 24 24 25 25 25 26 26 26 26 27 27 27 27 27 26 26 26 27 27 27 27 27 28 28 27 26 26 26 27 27 28 29 29 29 29 29 29
24 24 25 26 27 26 27 27 27 27 28 28 28 27 27 27 27 27 28 28 28 28 29 28 28 28 28 28 28 28 29 30 30 31 31 31 31 30
25 26 26 27 27 28 28 28 28 29 29 29 28 28 28 28 28 29 29 29 29 30 30 30 29 29 30 30 30 31 31 32 32 33 33 32 32 32
27 28 28 27 28 28 28 28 28 29 29 29 29 29 29 29 30 30 30 30 30 30 30 30 30 30 31 32 32 32 33 33 34 34 34 34 34 34
30 29 28 28 28 28 28 28 29 30 30 30 30 30 30 30 31 32 31 31 31 31 32 32 32 32 32 32 33 33 33 33 33 34 35 35 35 35
31 31 30 30 29 29 29 29 30 30 30 31 31 31 32 32 32 32 33 32 32 32 32 32 33 33 33 33 34 34 34 34 34 34 35 35 35 36
32 31 31 30 30 30 31 31 31 30 31 31 31 31 32 32 33 33 33 34 34 34 34 34 34 35 35 34 34 36 37 37 37 36 36 36 36 36
33 32 32 31 32 32 33 33 32 32 32 32 32 32 33 34 34 34 34 34 34 35 35 35 35 36 36 37 36 36 38 39 38 37 37 37 36 36
34 33 33 33 33 34 33 33 33 33 34 34 34 33 34 35 35 35 35 35 35 36 35 35 36 37 37 37 37 36 37 39 39 38 38 38 37 37
35 35 34 35 35 35 34 34 34 35 35 35 35 35 35 35 35 36 36 36 36 37 37 37 38 38 38 38 38 37 38 39 39 39 39 39 38 38
37 37 37 37 37 37 36 36 36 36 36 37 37 37 37 37 37 38 38 38 38 38 38 39 39 40 40 40 39 39 40 39 39 39 39 39 39 38

GEFSNE_500_meanwind_252.txt.gz
Wind_Speed
14 14 15 15 15 15 15 15 15 15 15 15 15 16 16 16 17 17 17 16 15 15 15 15 15 15 15 15 16 16 16 17 17 16 17 17 17 18
15 16 16 16 17 17 17 16 17 17 16 16 17 17 17 17 17 17 17 17 16 16 16 17 17 16 16 16 17 17 18 18 18 18 18 19 19 19
16 17 17 18 18 18 18 18 18 18 17 17 18 18 19 19 19 18 18 18 17 17 17 18 18 18 17 18 19 19 19 19 19 20 20 20 19 19
17 17 18 18 18 18 19 19 19 19 19 19 19 19 19 19 19 19 20 19 19 19 19 19 19 20 20 20 20 20 20 21 21 21 21 21 21 21
18 18 18 18 18 18 19 19 20 20 20 21 20 20 20 20 20 20 20 20 21 21 20 20 21 21 21 21 21 22 22 22 22 22 22 22 22 22
19 19 19 19 19 19 19 20 21 21 21 21 21 21 21 21 21 21 22 22 22 22 22 23 23 22 22 23 23 23 23 23 23 23 23 23 24 24
20 19 19 19 20 21 21 21 21 22 22 22 22 22 22 22 22 23 23 24 24 24 24 25 24 24 24 24 24 24 24 24 24 24 24 24 25 25
19 20 20 21 21 22 22 23 22 23 23 23 23 23 23 23 24 24 24 25 25 26 26 26 26 25 25 25 25 25 25 25 25 25 25 25 25 25
20 20 21 22 22 23 23 23 24 24 24 24 24 24 25 25 25 26 26 26 25 26 26 25 25 25 25 25 25 26 26 26 26 26 26 26 26 26
21 21 22 22 23 23 24 24 24 25 25 25 26 26 26 26 27 27 27 26 26 25 25 25 25 25 25 25 25 26 26 27 27 28 27 27 27 28
21 22 23 23 24 24 25 26 26 26 26 27 27 27 27 27 27 27 27 26 26 26 26 26 26 26 26 26 26 26 27 28 29 29 29 29 29 29
23 23 24 24 25 26 26 27 27 27 27 27 27 27 27 28 28 28 27 27 27 26 27 27 27 27 27 27 28 28 29 29 29 29 29 30 30 30
24 25 25 25 26 26 27 27 28 28 27 27 27 28 28 28 28 28 28 27 27 27 28 28 28 28 29 29 29 30 31 31 31 31 30 31 31 32
26 26 26 27 27 27 27 27 27 28 28 27 28 29 29 29 29 29 28 28 28 29 29 29 29 30 31 31 31 32 32 32 32 32 32 31 32 32
27 27 27 28 28 28 28 28 27 28 29 29 29 30 31 31 31 30 30 30 31 31 31 31 31 32 33 33 32 32 32 33 33 34 34 34 33 34
28 28 28 28 28 29 29 29 29 29 30 30 31 31 31 31 31 31 32 32 32 32 33 33 34 34 34 34 34 33 34 34 34 35 35 35 35 35
29 29 29 29 29 30 30 31 31 31 31 31 32 32 33 33 33 33 33 33 33 33 34 34 35 35 35 35 34 34 34 34 34 34 35 35 35 36
31 31 31 31 32 32 32 31 32 32 33 33 33 33 34 34 34 35 35 35 34 34 34 34 35 35 35 34 34 34 34 35 35 35 35 36 36 36
33 33 33 33 34 34 34 33 33 33 34 34 34 34 35 35 35 35 36 35 35 35 35 36 36 36 36 35 35 35 36 36 36 36 36 37 37 36
35 35 35 34 35 35 35 35 35 35 35 35 35 35 35 35 35 36 36 36 36 37 37 37 37 37 38 37 37 37 37 38 38 37 38 38 37 37
36 36 36 36 36 36 36 37 37 37 37 37 37 37 37 37 37 37 37 38 38 38 38 38 38 39 40 40 39 38 38 39 39 39 39 39 38 38
37 37 37 37 37 37 37 37 38 38 38 39 38 38 38 38 39 39 39 39 39 39 39 39 40 40 40 40 40 40 40 40 41 41 40 40 39 38
37 38 38 38 37 38 38 38 38 38 38 39 39 40 40 40 41 41 41 41 41 41 41 41 41 42 42 42 41 41 41 41 41 41 41 41 41 40

GEFSNE_500_meanwind_258.txt.gz
Wind_Speed
15 15 15 16 16 16 17 16 16 16 17 17 17 17 17 18 18 18 18 18 19 18 18 18 18 17 17 15 15 15 16 15 16 16 17 17 17 17
17 17 17 17 17 18 18 18 18 18 17 17 17 18 18 18 18 19 19 19 19 19 19 19 19 18 18 17 17 17 17 17 17 17 17 18 18 18
17 17 18 18 18 18 18 19 19 18 18 18 19 19 19 19 19 19 19 20 20 20 20 20 20 20 19 18 18 18 18 19 19 19 19 19 19 19
16 17 17 18 18 19 19 19 20 20 20 19 20 20 20 20 20 20 21 21 21 21 21 21 21 21 20 20 20 20 21 20 20 20 21 21 21 21
16 16 17 17 18 19 19 20 20 21 21 21 21 21 21 21 21 21 22 22 22 22 22 22 22 22 21 22 22 23 22 22 22 22 22 22 22 23
17 17 17 17 18 19 19 20 21 21 22 22 22 22 22 22 22 22 23 23 23 23 23 23 23 23 23 23 23 23 23 23 23 23 24 24 24 25
17 18 18 18 18 20 20 20 21 22 22 23 22 22 23 23 23 23 24 24 24 24 24 24 24 24 25 24 24 24 24 25 25 25 25 25 26 26
18 19 19 19 20 21 21 22 23 23 23 24 24 24 24 24 25 25 25 25 25 25 25 25 25 25 26 26 25 25 25 26 26 26 27 27 27 27
19 20 20 20 21 21 22 23 23 24 24 25 25 25 25 25 25 26 26 26 26 26 26 26 26 26 26 26 26 27 26 26 26 27 27 28 28 28
19 20 21 21 21 22 22 23 23 24 24 25 25 25 25 25 26 26 26 26 26 26 27 27 27 27 27 27 27 27 27 27 27 27 28 28 29 30
21 21 21 22 22 23 23 23 24 24 25 25 25 25 26 26 26 27 27 27 27 27 28 28 27 27 28 28 28 28 28 29 29 30 30 30 30 31
22 23 23 23 24 24 24 25 25 25 25 25 26 26 27 27 27 28 28 28 28 28 29 29 29 28 28 28 28 29 30 30 30 31 31 31 32 32
24 24 25 25 25 26 26 26 27 27 27 26 27 27 27 27 28 28 29 29 29 30 30 30 30 30 29 28 29 29 30 31 32 32 32 32 33 33
25 25 26 26 26 27 27 27 27 28 27 27 27 27 27 28 28 29 29 30 30 31 30 30 30 30 30 30 30 30 31 32 33 33 33 34 34 34
26 26 26 26 27 28 29 29 29 29 29 29 28 28 28 29 30 30 30 31 31 31 31 32 32 32 32 32 32 32 33 33 33 34 34 35 35 35
28 28 28 28 28 29 29 30 29 30 30 30 30 30 30 31 31 31 32 32 32 32 32 32 32 33 33 34 34 34 34 34 33 33 34 34 35 35
29 29 29 29 30 31 31 30 30 31 31 31 32 32 32 33 33 34 34 34 33 33 33 33 34 34 35 35 35 35 35 35 35 35 35 35 35 36
31 30 30 31 31 31 31 31 31 32 32 33 33 34 33 34 34 35 35 36 36 36 36 35 36 36 36 36 35 35 35 36 36 37 37 36 36 36
32 32 32 31 31 31 32 32 32 32 33 34 34 34 34 35 35 36 36 36 36 36 36 36 37 37 37 37 36 37 38 38 38 38 38 38 37 38
32 32 32 32 32 32 32 33 33 33 34 34 34 35 35 35 36 36 36 36 36 37 38 38 39 40 40 40 39 39 39 40 40 39 39 40 40 40
32 32 33 32 32 33 33 33 33 33 33 34 35 35 36 37 37 38 38 38 38 38 39 40 40 41 42 43 42 41 41 41 41 42 42 42 42 42
32 33 33 34 34 34 34 34 34 34 35 35 36 37 37 38 39 39 39 40 40 41 41 41 41 42 42 43 43 43 43 43 43 43 43 43 43 43
34 34 35 35 36 35 35 35 36 36 36 36 37 38 38 39 40 40 41 41 41 42 42 43 43 43 44 44 44 44 44 44 44 45 44 44 45 45